Reflectivity
-20 -20 -20 -20 -20 -20 -20 -20 -20 -20 -20 -20 -20 -20 -20 -20 -20 -20 -20 -20 -20 -20 -20 -20 -20 -20 -20 -20 -20 -20 -20 -20 -20 -20 -20 -20 -20 -20 -20 -20 -20 -20 -20
-20 -20 -20 -20 -20 -20 -20 -20 -20 -20 -20 -20 -20 -20 -20 -20 -20 -20 -20 -20 -20 -20 -20 -20 -20 -20 -20 -20 -20 -20 -20 -20 -20 -20 -20 -20 -20 -20 -20 -20 -20 -9 -20
-20 -20 -20 -20 -20 -20 -20 -20 -20 -20 -20 -20 -20 -20 -20 -20 -20 -20 -20 -20 -20 -20 -20 -20 -20 -20 -20 -20 -20 -20 -20 -20 -20 -20 -20 -20 -20 -20 -20 -20 -17 -20 -18
-20 -20 -20 -20 -20 -20 -20 -20 -20 -20 -20 -20 -20 -20 -20 -20 -20 -20 -20 -20 -20 -20 -20 -20 -20 -20 -20 -20 -20 -20 -20 -20 -20 -20 -20 -20 -20 -20 -20 -20 -20 -20 -20
-20 -20 -20 -20 -20 -20 -20 -20 -20 -20 -20 -20 -20 -20 -20 -20 -20 -20 -20 -20 -20 -20 -20 -20 -20 -20 -20 -20 -20 -20 -20 -20 -20 -20 -20 -20 -20 -20 -20 -20 -20 -20 -20
-20 -20 7 -20 -20 -20 -20 -20 -20 -20 -20 -20 -20 -20 -20 -20 -20 -20 -20 -20 -20 -20 -20 -20 -20 -20 -20 -20 -20 -20 -20 -20 -20 -20 -20 -20 -20 -20 -20 -20 -20 -20 -20
-20 -20 -13 -20 -20 -20 -20 -20 -20 -20 -20 -20 -20 -20 -20 -20 -20 -20 -20 -20 -20 -20 -20 -20 -20 -20 -20 -20 -20 -20 -20 -20 -20 -20 -20 -20 -20 -20 -20 -20 -20 -20 -20
-20 -20 -20 -20 -20 -20 -20 -20 -20 -20 -20 -20 -20 -20 -20 -20 -20 -20 -20 -20 -20 -20 -20 -20 -20 -20 -20 -20 -20 -20 -20 -20 -20 -20 -20 -20 -20 -20 -20 -20 -20 -20 -20
-20 -20 -20 -20 -20 -20 -20 -20 -20 -20 -20 -20 -20 -20 -20 -20 -20 -20 -20 -20 -20 -20 -20 -20 -20 -20 -20 -20 -20 -20 -20 -20 -20 -20 -20 -20 -20 -20 -20 -20 -20 -20 -20
-20 -20 -20 -20 -20 -20 -20 -20 -20 -20 -20 -20 -20 -20 -20 -20 -20 -20 -20 -20 -20 -20 -20 -20 -20 -20 -20 -20 -20 -20 -20 -20 -20 -20 -20 -20 -20 -20 -20 -20 -20 -20 -20
-20 -20 -20 -20 -14 -20 -20 -20 -20 -20 -20 -20 -20 -20 -20 -20 -20 -20 -20 -20 -20 -20 -20 -20 -20 -20 -20 -20 -20 -20 -20 -20 -20 -20 -20 -20 -20 -20 -20 -20 -20 -20 -20
-20 -20 -20 -20 -20 -20 -20 -20 -20 -20 -20 -20 -20 -20 -20 -20 -20 -20 -20 -20 -20 -20 -20 -20 -20 -20 -20 -20 -20 -20 -20 -20 -20 -20 -20 -20 -20 -20 -20 -20 -20 -20 -20
-20 -20 -20 -20 -20 -20 -20 -20 -20 -20 -20 -20 -20 -20 -20 -20 -20 -20 -20 -20 -20 -20 -20 -20 -20 -20 -20 -20 -20 -20 -20 -20 -20 -20 -20 -20 -20 -20 -20 -20 -20 -20 -20
-20 -20 -20 -20 -20 -20 -20 -20 -20 -20 -20 -20 -20 -20 -20 -20 -20 -20 -20 -20 -20 -20 -20 -20 -20 -20 -20 -20 -20 -20 -20 -20 -20 -20 -20 -20 -20 -20 -20 -20 -20 -20 -20
-20 -20 -20 -20 -20 -20 -20 -20 -20 -20 -20 -20 -20 -20 -20 -20 -20 -20 -20 -20 -20 -20 -20 -20 -20 -20 -20 -20 -20 -20 -20 -20 -20 -20 -20 -20 -20 -20 -20 -20 -20 -20 -20
-20 -20 -20 -20 -20 -20 -20 -20 -20 -20 -20 -20 -20 -20 -20 -20 -20 -20 -20 -20 -20 -20 -20 -20 -20 -20 -20 -20 -20 -20 -20 -20 -20 -20 -20 -20 -20 -20 -20 -20 -20 -20 -20
-20 -20 -20 -20 -20 -20 -20 -20 -20 -20 -20 -20 -20 -20 -20 -20 -20 -20 -20 -20 -20 -20 -20 -20 -20 -20 -20 4 -20 -12 -9 -8 -7 -20 -20 -20 -20 5 -13 -3 -18 -20 -0
-20 -20 -20 -20 -20 -20 -20 -20 -20 -20 -20 -20 -20 -20 -20 -20 -20 -20 -20 -20 -20 -20 -20 -20 -20 -20 -5 7 -8 -11 1 2 8 11 -6 -13 5 -7 -2 -8 9 12 1
-20 -20 -20 -20 -20 -20 -20 -20 -20 -20 -20 -20 -20 -20 -20 -20 -20 -20 -20 -20 -20 -20 -20 -20 -20 -20 -20 8 -20 -16 -13 -13 -16 -13 5 -16 -20 -20 -20 24 11 3 8
-20 -20 -20 -20 -20 -20 -20 -20 -20 -20 -20 -20 -20 -20 -20 -20 -20 -20 -20 -20 -20 -20 -20 -20 -20 -20 -20 -20 -14 -5 -20 19 10 -2 -20 -20 -20 -20 -20 -20 -20 -17 12
-20 -20 -20 -20 -20 -20 -20 -20 -20 -20 -20 -20 -20 -20 -20 -20 -20 -20 -20 -20 -20 -20 -20 -20 -20 -20 -20 12 -19 -20 -18 -20 -19 30 -20 -20 -20 -3 -20 -20 -20 -20 -7
-20 -20 -20 -20 -20 -20 -20 -20 -20 -20 -20 -20 -20 -20 -20 -20 -20 -20 -20 -20 -20 -20 -20 -20 -20 -20 -20 -20 -20 25 -2 -20 -20 31 -20 -20 -20 -20 -20 -20 -20 -20 -20
-20 -20 -20 -20 -20 -20 -20 -20 -20 -20 -20 -20 -20 -20 -20 -20 -20 -20 -20 -20 -20 -20 -20 -20 -20 -20 -20 -20 -19 6 -18 -20 -20 26 -9 -20 -20 -20 -20 -20 -20 -20 -20
-20 -20 -20 -20 -20 -20 -20 -20 -20 -20 -20 -20 -20 -20 -20 -20 -20 -20 -20 -20 -20 -20 -20 -20 -20 -20 -20 -20 -20 -20 -20 -20 -20 -20 -20 -20 -20 -20 -20 -20 -20 -20 -20
-20 -20 -20 -20 -20 -20 -20 -20 -20 -20 -20 -20 -20 -20 -20 -20 -20 -20 -20 -20 -20 -20 -20 -20 -20 -20 -20 -20 -20 -20 -20 -20 -20 -20 -19 -12 -20 -20 -20 -20 -20 -20 -20
-20 -20 -20 -20 -20 -20 -20 -20 -20 -20 -20 -20 -20 -20 -20 -20 -20 -20 -20 -20 -20 -20 -20 -20 -20 -20 -20 -20 -20 -20 -20 -20 -20 -20 -20 -20 -20 -20 -20 -20 -20 -20 -20
Wind_Speed
13 15 16 21 21 20 18 18 19 18 17 17 17 17 19 18 18 17 16 16 15 14 15 14 13 15 15 15 14 13 12 12 12 13 14 16 17 16 16 15 13 13 15
22 18 18 21 22 21 18 19 19 19 18 17 17 16 17 18 18 17 15 14 14 15 15 13 13 14 14 11 10 11 11 10 10 11 13 14 17 16 15 14 13 12 14
19 17 16 20 22 22 20 19 19 19 19 18 17 16 15 16 17 16 15 13 13 13 14 14 13 13 12 9 8 9 9 7 6 6 4 5 7 15 16 15 13 15 15
18 14 14 20 22 23 21 19 19 19 19 19 17 16 15 15 15 16 15 13 12 12 14 14 13 12 11 8 5 6 6 6 4 3 4 5 10 14 14 15 15 15 15
17 13 15 17 21 22 22 20 18 19 18 19 17 17 16 15 15 14 13 12 12 11 12 12 12 11 8 6 3 6 7 6 8 7 6 6 7 12 14 14 13 13 13
14 13 18 14 19 21 22 20 19 19 18 18 16 16 16 15 14 13 12 11 11 11 11 10 10 9 8 5 4 7 9 10 10 6 4 8 8 14 14 13 12 12 12
13 13 14 12 17 20 21 20 19 18 18 18 16 15 15 15 14 13 12 11 10 10 10 9 8 7 6 5 3 7 9 9 5 5 6 6 8 15 14 13 12 11 12
16 13 14 13 14 17 20 19 18 18 18 16 16 16 14 14 14 13 12 11 10 10 9 9 7 6 4 3 2 4 8 9 5 4 4 6 10 14 13 12 10 10 10
16 15 15 15 13 15 16 18 17 17 17 17 15 14 13 13 13 12 12 11 10 9 9 8 7 5 3 1 1 3 6 9 4 2 6 5 11 13 13 11 10 9 9
14 14 13 14 15 11 11 16 17 16 15 16 14 13 13 12 12 12 12 11 10 9 9 8 7 5 4 4 5 7 7 9 5 3 6 4 10 12 13 11 9 8 8
11 12 12 12 12 13 9 10 14 16 15 15 13 12 11 6 7 9 9 11 10 9 9 8 7 6 5 6 8 7 7 4 1 3 3 11 11 12 12 10 7 7 6
14 12 12 12 12 11 9 10 8 10 9 8 8 9 6 7 6 8 8 11 11 10 9 8 8 7 5 3 4 5 3 5 2 4 3 11 11 11 11 9 7 6 5
16 12 12 12 12 12 10 8 5 5 6 6 8 8 6 6 6 4 4 4 4 7 3 5 4 3 4 4 4 3 5 5 3 4 6 11 11 11 10 8 6 5 4
17 15 14 14 13 9 9 8 8 8 7 6 7 9 5 4 5 6 5 5 5 4 5 4 3 4 6 6 6 6 6 2 3 3 3 8 10 10 9 7 5 6 4
18 17 17 16 14 10 12 9 8 9 8 8 8 9 6 5 6 7 6 6 6 5 5 5 5 5 6 7 7 3 2 3 3 3 4 9 9 10 10 9 7 7 6
19 19 19 18 17 14 12 13 10 9 8 8 8 9 10 5 7 8 7 7 6 7 7 6 8 7 6 5 5 5 4 4 3 6 4 4 8 9 10 10 8 7 7
20 20 21 19 18 17 13 12 10 9 9 9 9 11 12 9 8 9 7 8 8 7 8 6 6 4 4 2 4 4 4 4 4 5 6 4 5 8 7 7 7 6 5
21 22 20 18 19 18 15 13 11 10 11 10 9 10 14 11 8 8 6 6 6 5 5 6 5 3 4 4 3 4 4 3 5 4 3 4 4 3 5 6 7 7 8
23 22 21 21 22 19 17 10 13 12 10 10 8 11 13 10 7 7 6 5 6 4 4 4 2 3 3 3 4 4 4 4 5 4 6 5 5 4 3 6 6 4 6
23 24 23 18 22 20 13 9 8 8 8 9 8 9 12 8 7 6 5 6 6 5 4 3 3 2 3 4 1 3 4 3 4 4 3 2 2 4 4 5 4 3 7
23 23 24 22 21 17 13 13 8 13 8 8 7 11 11 9 7 7 5 6 6 6 6 5 4 5 3 2 3 2 2 4 4 1 3 3 4 5 5 5 4 5 10
25 24 24 24 21 19 15 14 9 9 6 7 6 8 10 11 11 8 7 7 7 5 7 6 5 3 2 3 3 1 1 4 2 4 4 3 5 5 6 6 8 11 9
26 25 25 25 24 21 20 12 6 5 4 6 10 11 11 14 13 14 10 7 8 8 7 5 6 7 4 1 3 4 2 4 2 3 2 4 6 4 5 6 11 10 9
24 25 26 26 25 21 21 17 20 15 14 13 11 9 11 15 15 15 13 10 8 6 7 6 5 5 5 4 2 1 2 4 3 2 4 4 5 6 6 5 8 10 8
21 23 24 25 25 23 23 22 18 17 14 9 10 12 13 13 16 15 14 11 8 7 8 8 6 6 5 5 4 3 1 1 3 3 3 1 4 4 4 5 7 7 8
14 21 22 24 23 22 22 22 23 23 16 12 14 12 12 12 12 14 14 13 12 7 9 8 6 7 5 4 3 3 4 4 3 3 3 2 3 1 2 4 7 7 6
Wind_Direction
153 157 158 142 138 132 129 126 121 116 111 106 102 98 96 94 91 89 89 92 96 98 98 97 95 90 86 85 85 83 82 82 85 85 80 79 75 68 65 58 59 59 59
137 149 159 145 137 133 133 129 125 122 118 114 108 104 104 105 103 100 99 100 105 106 106 106 98 94 92 90 86 86 88 93 102 112 91 82 81 73 69 58 66 65 66
134 143 157 144 138 135 133 131 130 128 124 120 117 113 113 112 111 109 106 105 106 110 115 111 108 103 99 92 88 93 92 102 117 151 83 107 90 77 71 61 56 61 64
129 142 150 143 140 138 137 136 135 133 129 126 125 123 121 117 115 114 113 112 115 120 118 116 115 113 112 106 88 75 75 49 38 275 216 124 94 82 84 78 68 62 61
131 137 148 144 141 140 140 139 137 135 133 131 133 131 129 124 119 119 120 123 123 119 119 119 123 118 108 103 59 2 25 15 0 5 117 136 100 90 80 76 74 69 62
128 128 149 140 140 142 141 140 140 137 136 134 136 136 133 128 127 125 124 124 121 119 117 122 119 114 112 96 27 352 6 1 356 14 100 104 100 100 90 82 76 72 68
116 129 144 133 142 144 143 144 142 140 138 140 140 138 139 135 132 128 127 126 122 118 122 117 108 105 111 100 49 354 350 349 12 9 107 97 109 105 98 89 81 74 69
125 132 140 136 141 144 144 142 142 144 143 143 142 142 144 137 134 135 133 130 126 121 121 120 115 112 103 88 49 348 328 326 42 7 124 109 124 113 105 96 87 81 76
131 135 144 151 147 145 146 143 144 146 146 144 145 145 144 140 138 136 134 132 129 132 134 122 116 117 121 116 295 287 300 311 347 21 145 136 137 124 118 110 100 91 81
132 138 144 151 155 149 150 145 144 146 147 146 146 146 146 141 140 138 138 138 140 145 138 133 139 160 186 207 240 263 284 307 356 282 140 151 141 132 121 113 104 95 90
134 141 141 148 152 155 147 150 146 147 146 143 146 144 138 141 144 142 148 147 149 151 146 154 165 187 223 251 262 277 299 281 74 123 135 155 150 138 129 125 119 111 96
149 151 149 150 151 148 156 150 146 149 151 152 154 153 153 151 154 160 150 157 157 160 162 179 192 207 237 267 274 277 269 272 13 131 161 158 156 142 136 132 134 125 106
153 154 155 154 154 156 149 154 154 150 154 152 157 158 171 161 168 139 142 152 153 168 179 196 212 222 221 233 261 237 258 268 135 173 177 163 158 152 143 145 153 146 132
156 158 158 159 161 164 148 161 161 158 163 162 170 171 171 165 149 154 158 163 165 172 193 198 206 220 227 227 232 218 215 274 55 111 160 166 166 156 152 156 167 170 158
163 163 166 163 166 167 158 162 164 168 169 167 168 181 181 172 164 163 168 169 178 178 197 189 209 216 227 227 214 189 240 251 129 160 172 190 176 169 170 174 176 179 188
168 170 170 170 170 172 170 171 167 171 170 171 176 183 191 176 175 172 171 178 189 187 198 200 200 214 224 201 180 201 216 212 244 147 161 189 203 190 187 187 192 199 207
175 172 173 171 173 179 168 172 173 170 174 183 183 182 192 193 179 185 171 181 195 190 198 203 204 202 182 176 181 204 206 199 190 190 177 189 203 213 198 198 204 209 231
171 176 171 171 176 183 183 177 178 181 181 185 182 181 193 197 176 181 180 178 192 171 179 174 171 166 180 170 184 211 212 205 228 209 222 183 203 184 221 196 189 219 235
171 172 174 173 177 183 186 173 184 181 180 187 167 177 187 194 176 171 179 182 187 158 171 161 180 159 162 193 211 213 216 223 223 217 223 226 191 178 172 178 208 212 253
170 174 176 169 174 180 184 176 180 173 177 168 164 165 167 174 177 164 178 175 176 155 180 170 144 169 171 193 243 266 221 233 223 226 218 126 158 146 136 161 176 194 256
172 175 178 173 172 171 178 187 180 189 169 177 170 165 176 176 173 175 189 180 178 165 180 181 164 180 196 125 111 349 328 260 272 252 221 119 120 140 132 94 89 80 81
176 179 180 181 172 179 179 190 188 178 177 169 173 173 180 184 194 186 188 187 176 166 179 183 168 123 144 154 130 47 342 330 287 208 120 137 100 86 76 86 73 94 86
178 181 181 181 179 181 182 174 161 141 131 165 189 193 185 187 192 199 189 177 178 174 185 178 166 154 158 123 125 152 118 220 341 13 53 114 110 74 72 69 85 94 95
183 183 180 179 182 182 175 177 184 191 187 202 198 184 189 188 190 194 188 181 175 179 175 171 171 154 133 161 105 102 102 141 151 75 32 32 66 67 73 57 72 103 99
182 182 181 180 181 176 180 181 183 194 206 189 189 186 188 187 190 188 183 180 183 187 176 163 157 160 160 152 144 146 146 116 93 121 161 121 49 34 64 77 93 94 84
177 175 178 178 181 180 180 184 185 195 197 190 186 185 185 181 186 185 178 186 194 178 168 159 150 146 145 124 129 164 156 153 171 133 127 127 134 40 79 53 80 89 84